Regional Weather Roundup
Issued by NWS Wakefield, VA

Home | Current Version | Previous Version | Graphics & Text | Print | Product List | Glossary On
Versions: 1 2 3 4 5 6 7 8 9 10 11 12 13 14 15 16 17 18 19 20 21 22 23 24 25 26 27 28 29 30 31 32 33 34 35 36 37 38 39 40 41 42 43 44 45 46 47 48 49 50
000
ASUS41 KAKQ 011910
RWRAKQ

REGIONAL WEATHER ROUNDUP
NATIONAL WEATHER SERVICE WAKEFIELD VA
300 PM EDT WED OCT 01 2014

Note: "fair" indicates few or no clouds below 12,000 feet with no
significant weather and/or obstructions to visibility. * = Denotes
station may not report precipitation (e.g., rain,snow,etc.),
thunder or fog.

VAZ042-051-052>054-056-012000-
NORTHERN VIRGINIA

CITY           SKY/WX    TMP DP  RH WIND       PRES   REMARKS
WASH NATIONAL  PTSUNNY   76  60  57 N6        30.02F
DULLES         PTSUNNY   69  61  75 NE5       30.03S
FORT BELVOIR   MOSUNNY   72  61  67 VRB3      30.02F
QUANTICO       PTSUNNY   72  60  66 NE8       30.02S
FREDERICKSBRG* PTSUNNY   75  60  60 NE5       30.00S
STAFFORD*      LGT RAIN  71  62  73 NE3       30.05S
WARRENTON      PTSUNNY   75  67  76 E3        30.01F
CULPEPER*      PTSUNNY   73  63  68 NE5       30.02S
MANASSAS*      PTSUNNY   72  63  73 NE3       30.02S
LEESBURG*      CLOUDY    70  64  83 NE5       30.04S
WINCHESTER     MOSUNNY   70  61  73 E5        30.03S
FRONT ROYAL*   MOCLDY    70  63  78 CALM      30.01F
LURAY*         CLOUDY    73  63  68 N5        30.01F
$$

VAZ048-049-060>072-079>083-012000-
CENTRAL AND SOUTH CENTRAL VIRGINIA...AND NORTH CENTRAL NORTH CAROLINA

CITY           SKY/WX    TMP DP  RH WIND       PRES   REMARKS
RICHMOND       PTSUNNY   78  60  53 CALM      29.98F
CHESTERFIELD*  CLOUDY    77  57  50 CALM      30.01S
PETERSBURG*    CLOUDY    76  61  59 SW5       30.00S
HANOVER        MOSUNNY   79  62  56 CALM      30.01S
TAPPAHANNOCK*  CLOUDY    76  57  51 N7        30.00S
CHARLOTTSVILLE PTSUNNY   73  62  68 CALM      30.01F
ORANGE*        CLOUDY    72  63  73 NE5       30.03S
LOUISA*        MOSUNNY   73  63  68 NE3       30.00S
FARMVILLE*     PTSUNNY   77  61  57 S3        29.98F
CREWE*         CLOUDY    74  62  64 S6        30.00F
FORT PICKETT*  PTCLDY    73  62  70 W3        30.01S
LUNENBURG*     CLOUDY    72  64  78 CALM      30.02S
SOUTH HILL*    CLOUDY    73  64  73 CALM      30.07R
LAWRENCEVILLE* CLOUDY    73  64  75 NW3       30.00F
ROANOKE RAPIDS CLOUDY    73  63  68 N5        30.00S
RALEIGH        PTSUNNY   77  61  57 N3        30.00F
$$

VAZ088>098-012000-
SOUTHEAST VIRGINIA

CITY           SKY/WX    TMP DP  RH WIND       PRES   REMARKS
NORFOLK        MOSUNNY   73  62  68 N9        29.99S
VIRGINIA BEACH PTSUNNY   76  64  66 N8        29.98S
NORFOLK NAVAL  MOSUNNY   75  63  66 NE12      30.00S
WEST POINT*    PTSUNNY   78  60  54 NE7       30.00S
NEWPORT NEWS   MOSUNNY   77  62  59 NE7       29.99S
LANGLEY AFB    SUNNY     74  63  69 N8        30.00S
FORT EUSTIS    PTSUNNY   75  75 100 NE6       29.97S
WILLIAMSBURG*  SUNNY     79  66  65 CALM      30.00R
HR EXEC AP*    PTCLDY    77  63  61 NE7       30.00F
FRANKLIN*      MOSUNNY   73  63  68 CALM      29.99S
WAKEFIELD      MOSUNNY   79  62  56 NE3       29.98F
$$

VAZ020-022-025-037-045-012000-
WEST CENTRAL AND SOUTHWEST VIRGINIA

CITY           SKY/WX    TMP DP  RH WIND       PRES   REMARKS
STAUNTON*      PTSUNNY   73  58  57 SE3       30.02F
HOT SPRINGS VA CLOUDY    62  46  55 S6        30.10S
LYNCHBURG      MOSUNNY   74  60  61 CALM      30.02F
DANVILLE       CLOUDY    74  62  66 CALM      30.02F
SOUTH BOSTON*  NOT AVBL
MARTINSVILLE   MOSUNNY   77  63  60 CALM      30.03S
ROANOKE        PTSUNNY   74  60  61 SE10      30.02F
BLACKSBURG     MOSUNNY   75  61  60 W5        30.05S
DUBLIN*        MOSUNNY   79  51  37 NW6       30.04S
MARION*        SUNNY     75  53  46 SW7       30.08F
HILLSVILLE*    PTSUNNY   73  52  48 W5        30.06S
RICHLANDS*     MOCLDY    74  52  46 NW5       30.07S
WISE*          MOSUNNY   77  43  29 NW6       30.09S
ABINGDON*      MOSUNNY   78  47  33 W5        30.05F
$$

MDZ021>025-VAZ099-100-012000-
SOUTHERN MARYLAND AND THE DELMARVA PENINSULA

CITY           SKY/WX    TMP DP  RH WIND       PRES   REMARKS
PATUXENT RIVER MOSUNNY   73  59  61 VRB3      30.01S
BAY BRIDGE APT   N/A     72  59  64 N5        30.02S
LEONARDTOWN    CLOUDY    70  59  68 NE5       30.03S
DOVER          CLOUDY    72  59  64 NE7       29.99S
GEORGETOWN     CLOUDY    71  58  63 NE9       30.01S
EASTON         CLOUDY    73  61  64 NE6       30.05S
CAMBRIDGE      PTSUNNY   72  59  64 NW6       30.00S
SALISBURY      CLOUDY    73  61  65 N9        29.99F
OCEAN CITY     CLOUDY    70  61  73 NE13      29.99S
WALLOPS ISLAND CLOUDY    71  64  78 E14       29.99S
ACCOMACK*      CLOUDY    72  63  73 NE6       29.99R
$$

NCZ012>017-030>032-012000-
EASTERN NORTH CAROLINA

CITY           SKY/WX    TMP DP  RH WIND       PRES   REMARKS
ELIZABETH CITY SUNNY     79  63  57 NE8       29.97F
AHOSKIE*       MOSUNNY   76  63  64 CALM      29.98F
EDENTON*       MOSUNNY   78  63  59 NE6       29.97S
CURRITUCK*     SUNNY     76  58  53 NE10      29.99R
KILL DEVIL HLS MOSUNNY   74  63  69 N9G16     29.96S
MANTEO         MOSUNNY   74  63  69 N12G17    29.98S
CAPE HATTERAS  SUNNY     74  64  71 NE10G18   29.96S
TARBORO*       CLOUDY    77  64  63 N3        30.00S
GOLDSBORO      MOSUNNY   78  68  69 CALM      29.97F
WASHINGTON     MOSUNNY   78  63  59 N5        29.98S
GREENVILLE     PTSUNNY   79  63  57 N6        30.00F
NEW BERN       SUNNY     80  62  54 N6        29.98S
WILMINGTON     MOSUNNY   82  64  54 N8        29.97S
$$

VAZ048-012000-
ELSEWHERE

CITY           SKY/WX    TMP DP  RH WIND       PRES   REMARKS
HARRISBURG PA  PTSUNNY   71  59  65 S5        30.02F
BALTIMORE      PTSUNNY   71  58  63 CALM      30.01F
ANNAPOLIS        N/A     71  57  61 NE8       30.01F
ANDREWS AFB    CLOUDY    73  61  64 NE7       30.02S
WILMINGTON DE  CLOUDY    74  56  53 VRB5      30.01F
PHILADELPHIA   PTSUNNY   73  57  57 NE8       30.01S
WILDWOOD NJ*   CLOUDY    70  57  64 E3        30.01S
ATLANTIC CITY  CLOUDY    67  59  75 NE14G20   30.00S
HENDERSON NC   PTSUNNY   73  60  63 CALM      30.01S
GREENSBORO     PTSUNNY   75  63  66 VRB3      30.01F
ROCKY MOUNT    MOSUNNY   78  63  59 VRB3      29.99F
FAYETTEVILLE   SUNNY     82  65  56 N8        29.98F
CHARLOTTE      MOSUNNY   83  53  35 CALM      29.99F
$$

VAZ100-012000-
MARINE

STATION/POSITION TIME  TEMP    WIND        PRES    WAVE   SWELL
                       AIR SEA DIR/SP/G            HT/PER HT/PER
                 (UTC) (F)     (DEG/KT/KT) (MB)    (FT/S) (FT/S)
44066 TX TWR #4  1900   65 70   10/ 19/ 23 1013.8F   6/ 6   2/13
CAPE MAY NJ      1900   70 74  350/  9/ 12 1015.3S
LEWES DE         1900   68 70  360/  8/  9 1015.6S
15NM E FENWICK I 1900   68 70              1014.9F   5/ 6
OCEAN-CITY-INLET 1900   68 71   30/ 11/ 15 1015.1F
WACHAPREAGUE VA  1900   70 73   60/ 12/ 15 1015.1S
THOMAS POINT MD  1900   68 72   40/  7/  8 1017.4F
GOOSES REEF MD   1900   68     360/  8/ 10 1016.8S
COVE POINT MD    1900   67     340/  9/ 11 1016.3R
SOLOMONS ISLAND  1900      73                N/A
BISHOPS HEAD MD  1900   71 73   20/  4/  9 1015.5S
PINEY POINT MD   1900           40/  6/  7   N/A
POTOMAC MD       1900   71      20/  6/ 10 1015.4F
CAMBRIDGE MD     1900   69 71  320/  5/  6 1015.7S
LEWISETTA VA     1900   70 72   70/  3/  5 1015.7S
RAPPAHANNOCK LGT 1900          330/ 12/ 14 1016.0R
STINGRAY PT      1900   70      10/ 10/ 12   N/A
YORK RVR RNG VA  1900   71      50/  9/ 10 1015.2R
YORKTOWN VA      1900   72 74   80/  6/  7 1015.2S
JAMESTOWN VA     1900   73     210/  4/  4   N/A
DOMINION TERM VA 1900   73      60/  8/ 12 1015.4S
KIPTOPEKE VA     1900      77  330/ 12/ 14   N/A
CHES BAY BRIDGE  1900   69 72  340/  9/ 10 1015.0S
CHESAPEAKE LGHT  1800   68     360/ 10/ 11 1016.1F
WILLOUBY STN VA  1900   71      50/  8/  9 1014.3S
S CRANEY ISL VA  1900          340/  6/  7 1015.3R
CAPE HENRY BUOY  1900      73                N/A     3/13   2/13
1ST LANDING BUOY 1900   71     350/ 10/ 10 1015.1R
CAPE CHARLES BUO 1900      73                N/A     3/13   2/13
OFFSHORE WE BUOY 1900      72                N/A     4/ 5   3/ 5
64NM E OF VA BCH 1900   70 71   10/ 14/ 17 1013.7S   4/ 5   2/ 7
DUCK PIER NC     1900   70 73  360/ 13/ 15 1014.3R
44100 DUCK FRF   1900      72                N/A     3/ 5
44056 DUCK FRF   1900                        N/A     3/ 5   2/13
OREGON INLET NC  1900   73 73  360/ 11/ 15 1014.7S
HATTERAS NC      1900   72 74   20/ 14/ 17 1015.0S
DIAMOND SHLS NC  1800   72     350/ 16/ 19 1014.0    4/ 7   3/ 7
CAPE LOOKOUT NC  1800   74      50/ 11/ 12 1014.7F
$$


USA.gov is the U.S. government's official web portal to all federal, state and local government web resources and services.